GFSNE_prec_cloud_003.txt.gz
Cloud_Cover
44 5 5 35 5 2 7 5 2 14 2 0 0 0 0 0 0 0 0 0 0 0 21 5 5 49 96 34 5 2 0 0 0 0 0 0 0 0
87 5 68 26 5 3 5 8 5 5 5 1 6 0 0 0 0 0 0 0 0 0 0 5 5 5 93 28 5 5 0 6 0 0 0 0 0 0
70 20 57 24 12 3 5 2 7 16 16 5 4 10 0 0 0 0 0 0 0 0 0 0 5 4 6 41 5 5 1 1 8 0 0 0 0 0
100 92 98 6 85 5 2 0 5 5 28 84 5 0 1 0 10 1 0 0 0 0 0 0 0 3 0 5 5 5 4 0 5 1 0 0 0 0
100 92 80 77 5 1 98 30 91 100 42 53 0 0 0 0 1 2 10 0 0 0 0 0 0 0 0 0 5 5 5 0 0 1 3 0 0 0
100 100 100 60 47 91 5 93 100 81 4 4 9 0 1 1 7 28 1 2 0 0 0 0 0 0 0 0 0 2 5 0 7 51 21 0 0 0
100 100 100 72 100 6 100 100 100 31 49 2 6 6 0 7 0 0 18 25 0 0 0 0 0 0 0 0 0 0 0 0 18 99 99 22 17 1
100 100 98 100 21 5 97 96 45 99 69 99 4 3 0 3 0 49 23 4 0 0 14 0 6 0 0 0 0 0 0 0 1 100 100 41 32 30
100 99 100 78 11 79 88 91 65 100 100 12 34 29 27 18 53 64 8 31 38 12 41 0 36 0 0 0 0 0 0 0 0 9 100 57 50 31
100 100 43 95 100 100 100 100 100 100 32 1 17 23 24 12 6 26 70 84 42 59 97 34 32 2 9 70 92 41 0 0 0 11 97 100 100 100
100 100 97 100 100 100 97 100 35 78 6 0 0 1 0 0 3 79 78 88 28 42 78 78 58 100 100 100 100 72 0 0 0 9 94 100 100 100
100 100 100 100 100 100 100 100 94 5 5 5 0 0 3 0 0 75 100 100 91 19 100 100 100 100 100 100 31 94 100 10 0 34 100 100 94 56
100 100 100 96 84 100 100 95 5 14 5 4 0 1 2 7 32 43 22 100 48 92 72 100 100 100 100 100 94 100 100 86 27 40 100 100 100 42
99 100 63 99 100 100 79 6 4 5 2 0 0 1 5 5 5 88 100 100 23 97 100 100 100 100 100 100 98 100 100 94 63 100 82 99 100 48
100 15 7 27 100 90 8 2 3 4 5 5 0 0 0 0 5 35 68 100 100 100 100 100 100 100 100 100 100 100 100 100 100 100 100 100 100 100
6 5 53 71 4 0 0 1 4 5 3 0 0 3 5 0 14 100 98 98 100 100 100 100 100 100 100 100 100 100 100 100 100 100 100 100 100 62
5 0 0 0 0 7 9 3 2 5 1 4 5 3 5 2 45 99 100 97 100 100 100 100 100 100 100 100 100 100 100 100 100 100 100 100 100 100
0 0 0 0 0 6 1 66 59 5 0 0 4 3 66 27 78 90 100 100 99 100 93 100 100 100 100 100 99 100 100 100 100 100 100 100 100 100
0 0 5 2 0 4 74 81 5 1 0 0 0 1 68 95 99 99 98 99 100 100 100 100 100 100 100 100 100 100 100 100 100 100 100 100 100 100
5 5 5 5 4 5 38 5 5 3 0 0 0 0 47 75 100 100 100 100 99 98 100 100 100 100 100 100 100 100 100 100 100 100 100 100 100 100
5 4 5 5 5 5 5 5 5 0 0 0 0 0 16 78 100 100 100 100 100 100 100 100 100 100 100 100 100 100 100 100 100 100 100 100 100 100
5 5 5 5 5 5 5 0 0 0 0 5 0 0 1 65 100 100 100 100 100 100 100 100 100 100 100 100 100 100 100 100 100 100 100 100 100 100
2 5 5 5 3 0 0 3 5 0 0 0 0 0 0 12 100 100 100 100 100 100 100 100 100 100 100 100 100 100 100 100 100 100 100 100 100 100

GFSNE_prec_cloud_006.txt.gz
Cloud_Cover
5 22 77 71 55 98 97 71 99 71 28 16 23 41 6 14 1 0 0 0 0 0 0 2 67 6 5 92 100 90 86 5 5 1 0 0 3 2
65 53 100 100 100 100 99 99 100 87 86 5 58 63 17 5 0 0 0 0 0 0 0 0 0 5 4 5 79 100 64 43 5 3 1 0 0 0
98 100 100 100 100 100 100 100 100 96 46 49 52 100 13 23 7 32 37 7 0 0 0 0 0 0 2 1 5 68 80 30 5 0 0 0 0 0
100 100 100 100 100 100 100 100 100 77 18 96 56 29 4 4 79 19 44 22 14 0 0 0 0 0 0 0 0 4 15 7 5 1 0 0 0 0
100 100 100 100 100 100 100 100 100 85 79 100 87 90 27 66 99 100 82 3 9 12 0 0 0 0 0 0 0 0 4 5 5 4 0 0 0 19
100 100 100 100 100 100 100 100 99 51 47 94 100 100 98 100 100 100 100 70 14 5 0 0 0 0 0 0 0 0 0 4 3 0 0 0 0 0
100 100 100 100 100 100 100 67 74 100 100 100 100 100 99 97 100 98 88 93 21 27 6 0 0 0 0 0 0 0 0 0 1 0 0 0 0 2
100 100 100 100 100 100 90 68 100 100 100 100 100 100 100 100 100 53 31 18 21 0 0 0 0 1 0 0 0 0 0 0 0 0 0 0 28 100
100 100 100 100 100 100 100 98 100 100 100 100 100 100 100 73 7 69 26 11 0 0 5 2 31 1 1 0 0 0 0 0 0 0 0 0 19 80
100 100 100 100 100 100 100 100 100 83 99 66 85 15 9 1 1 1 0 0 11 42 81 73 65 4 1 0 0 0 0 0 0 0 0 0 9 55
98 100 100 100 100 100 100 100 100 100 100 58 0 3 2 4 1 8 0 84 45 30 3 89 17 44 3 2 8 6 0 92 38 0 0 0 3 92
100 100 100 100 99 100 100 100 94 24 13 1 0 4 0 0 0 17 75 100 100 83 17 98 99 76 83 100 98 92 90 34 100 98 4 0 20 4
97 85 100 100 100 100 64 3 49 54 5 3 0 0 0 0 4 76 85 54 38 14 100 99 100 100 100 100 100 100 100 76 100 96 53 0 67 18
48 35 30 28 5 3 37 0 0 5 4 0 0 0 0 2 0 0 0 0 38 100 100 100 100 100 100 100 100 100 100 100 100 100 100 9 81 96
23 31 1 0 0 21 4 0 2 5 21 0 0 0 0 0 0 4 5 20 86 100 100 100 100 100 100 100 100 100 100 100 100 81 75 100 69 100
31 5 4 9 7 13 0 8 3 1 0 0 0 0 0 0 0 5 5 92 96 100 100 100 98 100 100 100 100 100 100 100 100 100 67 48 72 53
10 5 5 5 5 24 46 22 1 0 0 7 10 2 0 0 1 63 5 80 100 100 100 100 75 100 100 100 100 100 100 100 100 100 100 100 100 91
65 92 99 10 0 5 24 6 0 0 0 5 2 0 0 0 3 42 20 100 100 100 100 100 53 94 100 100 100 100 100 100 100 100 100 100 100 100
7 5 0 1 5 5 5 2 0 0 0 0 0 0 0 0 5 67 71 100 100 100 100 100 100 96 100 100 100 100 100 100 100 100 100 100 100 100
2 5 5 5 5 5 1 0 0 0 0 0 0 0 0 0 4 58 100 100 100 99 100 100 100 100 100 100 100 100 100 100 100 100 100 98 62 86
4 5 5 5 0 5 2 2 4 0 0 0 0 0 0 0 0 44 100 100 100 100 100 100 100 98 100 100 100 100 100 100 100 100 100 100 100 100
61 93 30 1 2 5 5 4 1 0 0 0 0 0 0 0 0 39 100 100 98 100 100 100 100 100 100 100 100 100 100 100 100 100 100 100 100 100
50 5 2 0 0 0 0 0 0 0 0 0 0 0 0 0 0 3 100 50 100 100 100 100 100 100 100 100 100 100 100 100 100 100 100 100 90 100

GFSNE_prec_cloud_009.txt.gz
Cloud_Cover
6 11 43 94 62 100 100 100 100 100 100 100 100 100 100 86 97 0 1 0 0 0 0 2 4 5 34 100 100 100 100 100 100 99 18 5 5 4
100 100 87 98 100 100 100 49 100 100 100 100 100 100 70 12 39 77 10 0 0 0 5 4 3 0 1 3 72 12 11 77 95 93 65 5 5 0
56 82 62 100 100 100 100 100 100 100 100 100 100 100 88 83 87 82 98 100 28 78 49 5 5 0 0 0 0 2 1 5 7 7 54 5 5 1
93 100 99 100 100 100 100 100 100 100 100 100 100 100 100 91 82 99 83 62 38 99 100 77 2 0 0 0 0 0 0 0 5 5 5 5 5 5
92 100 100 100 100 100 100 100 100 100 100 100 100 100 99 100 100 53 86 100 100 100 28 27 4 0 0 0 0 0 0 0 0 5 5 5 5 5
100 100 100 100 100 100 100 100 100 100 100 100 100 100 100 80 100 99 100 100 100 84 50 0 32 1 0 0 0 0 0 0 0 0 0 0 1 5
91 100 100 100 100 86 100 100 100 100 100 99 100 98 100 97 100 100 100 100 5 100 1 0 2 12 3 0 0 0 5 0 0 0 0 0 0 0
28 79 98 88 100 100 100 100 100 100 100 100 100 100 100 100 100 100 77 2 0 0 0 0 0 0 0 0 0 0 0 0 0 0 0 0 0 0
39 100 51 83 100 100 97 100 100 100 100 100 100 100 100 100 100 82 1 5 0 0 0 0 0 0 0 1 43 2 0 0 0 0 0 0 0 0
100 24 33 58 66 86 99 100 100 100 100 100 93 100 100 10 0 1 0 0 0 0 40 10 27 1 1 100 3 0 0 0 0 6 0 12 0 0
100 5 68 89 90 97 100 100 100 100 100 51 7 0 0 0 0 0 3 0 0 14 0 13 16 67 44 0 0 0 0 7 100 18 59 44 100 32
36 96 59 89 22 32 6 31 67 73 8 1 24 9 0 0 2 3 8 97 83 21 21 49 1 0 2 100 100 27 19 95 100 81 47 100 99 92
39 65 88 100 100 6 10 20 5 12 0 1 3 5 20 35 4 50 54 14 35 2 5 0 0 21 28 100 100 100 100 100 97 100 84 100 100 100
12 55 77 100 31 77 100 4 3 5 5 4 10 72 14 2 1 1 0 0 0 0 93 1 26 100 100 100 100 100 100 100 98 84 100 100 100 100
93 100 100 70 57 83 6 5 24 9 16 64 59 1 0 0 0 4 5 0 0 5 47 98 100 100 100 100 100 100 100 99 98 100 100 100 100 100
95 94 72 33 60 33 4 5 5 12 66 10 0 0 0 0 2 5 5 0 3 26 27 100 100 100 100 100 100 100 100 100 100 100 100 98 95 79
39 5 5 3 12 37 80 100 100 100 39 2 0 0 0 3 3 0 0 0 54 6 100 100 100 100 100 100 100 100 100 100 100 100 100 100 100 100
5 18 12 10 24 45 93 100 92 75 35 12 0 0 3 0 0 0 0 0 62 80 100 100 100 100 100 100 100 100 100 100 100 100 100 100 100 99
47 6 5 29 14 34 32 17 7 3 0 0 0 5 0 0 0 0 0 0 8 100 100 100 100 100 100 100 100 100 100 100 100 100 100 100 100 100
89 99 100 88 93 80 41 18 1 0 0 0 0 0 0 0 0 0 0 0 24 100 100 100 100 100 100 100 100 100 99 100 100 100 100 100 76 100
66 100 100 100 71 5 5 1 4 5 4 1 0 0 0 0 0 0 0 0 75 100 100 100 100 100 100 87 97 100 100 100 100 100 100 100 100 100
100 90 18 5 5 0 0 0 0 0 0 0 0 0 0 0 0 0 0 0 36 100 100 100 100 100 87 99 100 100 100 100 100 100 100 100 100 100
92 25 27 2 0 0 0 0 0 0 0 0 0 0 0 0 0 0 0 0 36 100 100 100 100 100 100 100 100 100 100 100 100 100 100 100 100 100

GFSNE_prec_cloud_015.txt.gz
Cloud_Cover
0 2 5 5 5 5 46 93 100 100 100 100 100 98 100 100 100 100 100 100 98 55 100 95 93 95 10 5 0 9 99 100 100 100 100 100 86 100
4 1 3 50 5 82 96 19 5 42 100 54 6 76 92 98 100 100 100 100 100 96 100 60 9 12 98 100 4 71 0 42 100 100 100 100 98 42
5 5 5 31 20 14 32 15 5 5 5 7 12 15 21 23 44 99 100 100 100 100 57 35 100 100 65 20 5 2 0 2 2 65 100 100 93 88
17 25 22 1 38 5 25 97 100 5 5 5 5 36 100 97 99 99 74 89 100 100 100 100 100 100 92 9 3 5 5 0 1 0 6 100 84 5
96 50 64 45 100 10 22 95 11 21 72 68 5 5 8 5 8 5 28 11 77 76 100 100 100 100 100 75 94 17 3 5 1 9 37 2 76 98
5 14 92 100 100 42 22 99 66 92 100 100 98 97 15 6 17 15 15 5 60 64 52 100 100 100 51 70 96 100 100 100 100 3 1 0 0 12
77 88 95 100 100 23 61 66 87 95 97 100 56 17 5 6 40 71 97 100 100 98 75 91 95 55 59 100 100 86 100 80 5 5 0 0 0 0
0 53 100 100 100 46 51 100 100 100 100 100 100 100 93 8 5 40 5 63 100 94 97 100 100 100 100 100 100 99 83 29 0 0 0 0 0 0
6 100 99 93 100 96 85 97 100 100 100 100 100 97 37 44 8 48 99 81 57 98 100 85 98 48 28 2 0 0 0 0 0 0 0 0 32 2
8 83 97 22 100 92 100 100 100 100 100 80 71 100 46 5 5 5 12 1 1 0 1 0 0 0 0 0 0 0 0 0 0 0 0 0 0 0
90 98 71 62 100 79 48 100 100 100 100 98 95 98 22 5 1 0 0 4 0 0 0 0 0 0 0 0 0 0 0 0 0 0 0 0 0 0
36 8 26 100 57 60 100 100 99 84 70 82 76 84 70 5 5 0 0 100 1 0 0 0 0 0 0 0 0 0 0 0 7 5 0 0 0 0
75 46 84 56 87 100 100 79 28 89 100 100 97 5 66 100 67 58 69 86 0 1 0 0 0 0 0 1 10 0 1 10 100 8 0 38 39 4
37 2 6 49 100 81 33 19 58 70 100 100 99 94 96 100 9 79 39 50 28 3 0 0 0 0 0 2 0 91 70 76 33 64 99 48 10 56
0 45 78 60 42 24 76 95 100 8 26 32 64 95 100 100 9 5 5 2 0 0 0 0 0 0 1 42 31 100 100 100 93 44 71 84 97 100
11 50 29 43 60 6 4 2 0 2 3 80 92 9 6 5 5 5 5 0 0 0 0 0 0 3 78 20 73 99 100 100 100 100 100 82 92 100
1 58 84 36 0 0 0 0 92 100 91 80 100 100 100 5 0 0 0 0 0 0 0 0 0 2 36 14 60 100 100 100 81 100 100 100 100 100
0 0 0 0 0 0 0 0 0 1 3 32 58 24 1 0 0 0 0 0 0 0 0 0 0 0 1 6 98 100 88 95 100 100 100 100 100 100
5 2 0 0 0 5 0 0 13 18 18 2 0 0 0 0 0 0 0 0 0 0 0 0 0 0 2 99 20 100 100 96 100 85 100 100 100 100
6 0 0 0 0 0 0 0 0 0 0 0 0 0 0 0 0 0 0 0 0 0 0 0 0 2 74 100 51 82 100 100 100 100 100 100 100 100
11 2 0 0 0 0 0 0 0 0 0 0 0 0 0 0 0 0 0 0 0 0 0 0 0 1 27 100 100 98 67 100 99 100 100 100 100 100
5 0 0 1 0 0 0 0 0 0 0 0 0 0 0 0 0 0 0 0 0 0 0 0 0 0 97 100 100 100 100 99 34 47 100 100 100 100
0 0 0 0 0 0 0 0 0 0 0 0 0 0 0 0 0 0 0 0 0 0 0 0 0 0 96 100 98 100 100 99 94 93 100 100 100 100

GFSNE_prec_cloud_021.txt.gz
Cloud_Cover
0 76 55 4 5 5 0 1 5 5 6 76 82 5 5 5 3 3 0 1 5 5 3 54 100 100 100 100 100 100 100 100 72 90 100 100 100 100
1 100 54 5 4 5 1 0 4 5 18 5 5 5 56 44 5 5 5 5 5 2 0 2 22 100 100 100 100 100 100 100 94 100 100 97 100 100
25 92 6 5 11 4 0 0 14 5 5 5 5 5 5 5 5 5 5 5 5 5 5 5 4 1 4 95 100 100 100 100 100 94 67 100 69 96
8 68 5 10 18 5 9 0 2 31 5 5 5 5 9 8 5 5 5 79 5 5 5 13 5 27 49 5 6 68 5 30 100 100 100 100 53 99
100 100 77 16 58 49 88 55 99 81 8 13 89 14 5 6 7 5 6 8 16 16 80 99 100 92 81 5 5 5 5 4 4 57 83 93 100 100
100 100 100 100 100 32 98 87 55 9 98 34 98 30 64 18 28 76 32 15 92 14 9 21 98 100 98 3 0 0 5 5 5 2 2 10 90 100
100 100 100 100 100 53 75 70 17 92 35 28 63 93 100 100 100 100 100 100 100 96 67 50 27 26 5 1 0 0 0 1 5 5 7 9 83 64
100 100 100 100 100 22 98 100 63 33 29 68 5 25 99 100 100 100 100 100 100 100 45 9 62 10 99 96 5 0 0 0 0 3 5 5 6 65
100 100 100 100 52 18 92 86 37 67 24 87 20 18 86 100 100 100 94 70 96 94 5 11 4 1 8 5 4 0 0 4 0 0 0 0 2 3
100 100 100 100 90 9 33 63 96 63 30 100 30 100 100 100 100 98 100 39 90 47 86 34 2 3 73 100 100 86 2 0 2 0 0 0 0 0
100 100 100 100 76 40 95 100 100 35 59 61 42 100 100 25 26 57 40 87 93 80 6 0 0 56 100 100 98 6 5 4 0 0 0 0 0 0
100 100 100 100 100 100 100 100 86 44 90 45 12 87 5 66 14 11 0 0 0 0 0 0 4 6 46 99 57 11 5 5 0 0 0 0 0 0
100 100 100 100 100 100 94 37 44 95 30 26 45 15 11 1 0 0 0 0 10 19 22 0 0 0 2 3 0 0 0 0 0 0 0 0 0 0
100 100 100 100 100 100 100 87 93 8 73 8 2 0 0 0 0 0 0 0 2 0 0 0 0 0 0 0 0 0 0 0 0 0 0 0 2 0
100 100 100 100 100 100 100 100 47 6 3 0 0 0 0 0 0 0 0 0 0 0 0 0 0 0 0 0 0 0 0 0 0 0 0 1 1 0
100 98 96 88 91 74 100 88 5 5 0 0 0 0 0 0 0 0 0 0 0 0 0 0 0 0 0 0 0 0 0 0 0 0 0 0 0 5
100 97 98 69 70 4 5 6 5 5 0 0 0 0 0 0 0 0 0 0 0 0 0 0 0 0 0 0 0 0 0 0 0 0 0 2 6 5
100 100 97 62 16 6 5 5 44 2 0 4 0 0 0 0 0 0 0 0 0 0 0 0 0 0 0 0 0 0 0 0 0 0 0 22 98 19
100 100 35 5 5 4 0 3 5 5 5 4 0 0 0 0 0 0 0 0 0 0 0 0 0 0 0 0 0 0 0 0 0 0 0 78 100 72
100 86 5 5 5 5 3 22 13 0 5 4 0 0 0 0 0 0 0 0 0 0 0 0 0 0 0 0 1 0 0 0 0 2 75 36 46 98
100 5 5 14 5 2 3 75 59 0 17 6 0 0 0 0 0 0 0 0 0 0 0 0 0 0 0 0 2 0 0 0 1 5 9 98 100 100
37 3 81 93 5 5 98 47 5 3 7 14 0 0 0 0 0 0 0 0 0 0 0 0 0 0 0 0 0 0 0 29 44 7 90 85 100 100
2 6 79 25 21 67 11 5 10 31 34 0 0 0 0 0 0 0 0 0 0 0 0 0 0 0 0 0 0 0 0 17 50 94 100 100 100 88

GFSNE_prec_cloud_024.txt.gz
Cloud_Cover
0 0 4 32 41 55 64 96 100 100 62 5 5 5 5 5 5 5 5 4 3 1 0 0 1 5 97 51 100 100 100 100 100 100 100 100 100 100
4 1 6 90 14 8 57 63 100 69 57 5 5 5 5 5 62 44 5 5 5 5 5 3 0 6 54 15 28 17 94 100 100 100 100 100 100 100
0 0 3 27 42 28 77 90 88 69 13 5 12 5 5 5 5 5 5 5 5 5 5 5 4 4 93 66 6 6 5 7 66 100 100 100 100 100
0 5 10 96 97 99 100 17 77 6 5 17 5 5 5 5 5 5 5 17 92 44 5 5 3 5 91 5 5 33 3 5 5 38 100 86 23 98
2 5 94 100 100 100 99 95 14 31 5 97 14 5 5 5 25 53 25 36 5 66 100 100 99 100 87 5 5 46 100 99 57 7 6 78 5 82
1 5 68 100 100 100 100 68 37 57 100 54 90 5 15 29 11 13 94 100 60 98 75 100 100 100 100 100 100 100 100 100 94 99 14 0 5 4
5 71 97 100 100 100 100 99 34 99 100 19 33 53 32 24 6 12 99 100 100 98 87 99 69 84 100 5 4 23 61 100 58 99 52 0 0 0
5 42 100 100 100 73 100 58 100 100 100 99 11 52 77 29 46 90 100 100 100 100 42 100 99 100 100 8 56 5 5 4 3 5 5 14 4 0
5 41 85 100 83 100 100 100 100 100 100 100 100 99 99 100 13 87 100 100 100 99 94 16 79 7 1 1 0 3 2 2 0 1 5 6 81 1
16 60 100 96 100 100 100 100 100 100 100 100 100 58 80 29 5 4 10 31 32 3 12 72 0 0 0 0 0 0 0 0 1 5 5 5 13 0
49 100 100 95 100 100 100 100 100 96 100 100 100 90 89 27 12 73 98 98 34 0 2 0 0 0 0 0 0 0 0 4 5 34 76 47 85 98
100 100 100 96 100 100 100 100 8 56 100 100 65 12 3 10 34 5 1 0 0 0 0 0 0 0 0 0 0 0 0 0 2 5 23 31 5 4
100 100 100 84 100 97 82 61 34 100 100 57 100 75 30 4 0 0 0 0 0 0 0 0 0 0 0 0 0 0 0 0 0 0 6 1 0 13
100 100 100 100 63 83 84 52 91 100 100 99 94 66 4 0 0 0 0 0 0 0 0 0 0 0 0 0 0 0 0 0 0 0 0 0 0 0
100 100 100 100 100 100 100 100 100 100 100 100 100 81 5 0 0 0 0 0 0 0 0 0 0 0 0 0 0 0 0 0 0 0 0 0 0 0
100 100 100 100 100 100 100 100 100 100 100 100 39 0 4 0 0 0 0 0 0 0 0 0 0 0 0 0 0 0 0 0 0 0 0 0 0 0
100 100 100 100 100 100 100 100 100 100 100 78 0 0 0 0 0 0 0 0 0 0 0 0 0 0 0 0 0 0 0 0 0 0 0 0 0 0
100 100 100 100 100 100 100 100 100 100 100 10 0 0 0 0 0 0 0 0 0 0 0 0 0 0 0 0 0 0 0 0 0 0 0 0 0 0
100 100 100 100 100 100 100 100 100 100 54 1 0 0 0 0 0 0 0 0 0 0 0 0 0 0 0 0 0 0 0 0 0 0 0 0 0 0
100 100 100 100 100 100 100 100 100 58 6 0 0 0 0 0 0 1 0 0 0 0 0 0 0 0 0 0 0 0 0 0 0 0 0 0 1 6
100 100 100 100 100 100 100 100 100 11 59 0 0 0 0 3 1 0 0 0 0 0 0 0 0 0 0 4 4 0 0 0 0 0 5 4 35 78
100 100 100 100 100 100 100 100 32 7 20 1 0 0 0 3 4 4 0 0 0 0 0 0 0 0 0 0 0 0 0 0 0 5 10 24 97 100
100 100 100 100 100 100 100 94 60 62 28 0 0 0 2 8 5 2 0 0 0 0 0 0 0 0 0 0 0 0 0 4 23 5 28 8 100 100

GFSNE_prec_cloud_027.txt.gz
Cloud_Cover
0 0 0 0 0 3 6 6 50 49 33 6 4 5 5 3 0 0 4 5 3 1 2 5 5 0 0 1 5 14 99 89 100 100 100 100 100 100
0 0 0 2 5 14 11 10 19 0 44 97 5 5 5 4 4 1 2 4 5 5 5 5 3 0 0 0 0 5 77 54 9 72 100 100 100 100
0 0 5 5 5 5 5 0 5 9 63 71 5 90 49 5 9 45 5 5 5 5 5 5 5 4 2 2 1 4 3 87 100 15 23 91 62 73
0 0 1 4 8 71 63 11 11 2 6 5 88 100 100 97 99 95 5 7 54 12 5 5 5 5 7 100 100 100 98 100 97 54 5 9 28 5
0 0 5 42 63 68 46 100 51 4 100 100 100 100 77 99 82 46 90 9 16 34 25 42 9 5 54 99 100 100 100 100 100 100 77 11 99 66
0 6 56 74 38 86 100 53 11 94 83 46 99 93 74 63 74 90 100 83 5 7 71 55 51 93 100 100 100 100 90 98 100 100 100 100 100 100
5 96 83 10 5 5 70 27 20 100 100 100 92 100 98 100 100 100 88 33 10 52 96 99 79 100 100 99 100 100 100 100 100 100 100 36 34 59
5 14 8 5 5 5 100 21 95 100 100 99 10 100 100 99 100 100 92 92 13 50 80 27 82 60 26 5 40 100 100 99 79 19 37 41 0 0
5 3 5 86 35 73 98 65 38 8 73 5 16 99 100 100 100 100 71 6 33 30 5 5 4 0 0 0 0 0 0 0 0 0 0 0 0 0
5 3 16 70 70 81 97 5 51 100 66 26 5 69 100 100 100 100 43 12 10 2 28 2 0 0 0 0 0 0 0 0 0 0 0 0 0 0
32 5 79 100 99 100 98 30 71 95 91 52 8 100 100 100 100 93 5 6 2 14 2 0 0 0 0 0 0 0 0 0 0 0 0 0 0 0
42 59 99 100 100 99 100 86 60 51 52 33 78 100 100 100 100 54 5 5 0 0 0 0 0 0 0 0 0 0 0 0 0 0 0 0 0 3
100 96 100 100 100 100 100 100 87 16 16 10 76 100 100 100 100 8 23 6 0 3 0 0 0 0 0 0 0 0 0 0 0 0 0 0 0 49
100 100 100 100 100 100 100 100 84 89 100 51 98 100 100 100 64 93 18 1 0 0 0 0 0 0 0 0 0 0 0 0 0 0 0 0 0 0
100 100 100 100 100 100 100 100 100 100 100 100 100 100 100 96 100 34 23 0 0 0 0 0 0 0 0 0 0 0 0 0 0 0 3 0 0 0
100 100 100 100 100 100 100 100 100 100 100 100 100 100 93 100 100 87 61 7 0 0 0 0 0 0 0 0 0 0 0 0 0 4 5 0 0 0
100 100 100 100 100 100 100 100 100 100 100 100 100 100 100 100 100 74 4 0 0 0 0 0 0 0 0 0 0 0 0 1 4 1 0 0 0 0
100 100 100 100 100 100 100 100 100 100 100 100 100 100 100 100 100 31 27 0 2 0 0 0 0 0 0 0 0 0 0 0 1 0 0 1 0 0
100 100 100 100 100 100 100 100 100 100 100 100 100 100 100 100 100 100 5 68 0 0 0 0 0 0 0 0 0 0 0 0 0 0 0 0 0 0
100 100 100 100 100 100 100 100 100 100 100 100 100 100 100 100 100 53 5 75 3 0 0 0 0 0 0 0 0 0 0 0 0 0 0 0 0 3
100 100 100 100 100 100 100 100 100 100 100 100 100 100 100 100 100 59 30 15 3 0 0 0 0 0 0 0 0 0 0 0 1 47 75 82 95 95
100 100 100 100 100 100 100 100 100 100 100 100 100 100 100 100 100 40 20 5 1 0 0 0 0 0 0 0 0 0 0 0 2 35 100 96 94 100
100 100 100 100 100 100 100 100 100 100 100 100 100 100 18 95 65 40 98 60 4 0 0 0 0 0 0 0 0 0 0 0 5 6 22 14 7 93

GFSNE_prec_cloud_030.txt.gz
Cloud_Cover
0 0 0 4 5 71 6 2 26 100 100 12 5 5 15 5 44 47 12 5 7 5 5 5 5 5 5 5 5 4 1 5 83 72 92 100 100 100
0 0 0 5 37 34 5 0 82 96 31 9 4 4 4 5 88 17 28 73 12 9 45 57 5 5 5 5 5 4 40 17 5 18 5 51 100 100
0 0 0 5 5 5 4 0 52 5 68 17 5 5 13 89 100 73 77 100 7 8 12 9 5 5 5 5 5 5 5 92 97 6 25 8 7 56
0 0 2 5 5 5 5 5 17 48 29 5 1 5 25 100 100 72 100 55 11 99 38 5 5 5 5 5 6 40 66 68 100 100 100 95 85 6
0 0 0 5 4 2 77 4 7 9 4 0 5 5 45 100 94 96 100 77 9 40 46 54 5 5 5 6 25 69 100 100 100 100 100 100 100 100
0 0 0 3 0 5 5 5 4 4 2 0 4 2 1 100 48 93 98 65 100 33 98 94 23 5 85 66 86 96 100 93 94 100 100 100 100 100
2 0 0 0 68 5 5 5 8 5 5 0 3 4 5 22 22 100 86 42 100 98 43 100 5 12 21 4 1 0 0 0 8 26 7 1 99 100
0 0 0 45 46 6 6 9 33 13 0 28 54 50 22 5 90 100 72 100 98 100 70 37 100 66 34 37 82 11 0 0 0 3 2 0 0 0
0 0 2 59 76 5 5 6 5 30 49 5 37 4 95 6 100 98 98 96 86 88 36 15 53 38 0 2 0 0 0 0 0 0 0 0 0 0
0 1 14 14 14 100 100 6 20 33 15 43 70 79 57 87 98 98 100 100 100 100 98 35 49 0 0 0 0 0 0 0 0 0 0 0 0 0
4 0 18 71 100 100 100 100 100 100 100 97 100 100 99 71 100 100 100 100 100 100 100 56 90 59 0 0 0 0 0 0 0 0 0 0 0 0
5 5 94 100 75 89 100 100 100 100 100 100 100 100 100 59 39 100 100 100 100 100 100 95 86 23 3 0 0 0 0 0 0 0 0 0 0 3
12 59 91 100 100 100 100 100 100 100 100 100 82 100 100 100 100 100 99 100 100 100 100 100 5 13 5 0 0 0 0 0 0 0 0 1 0 36
99 80 100 100 100 100 100 100 100 100 100 100 100 100 100 100 100 79 74 100 100 100 100 89 5 8 8 5 0 0 0 0 0 0 3 1 1 1
99 100 100 100 100 100 100 100 100 100 100 100 100 94 100 100 100 100 100 100 100 100 99 100 5 5 90 4 0 0 0 0 0 1 2 1 5 3
100 96 100 100 100 100 100 100 100 100 100 100 100 100 100 100 100 100 100 100 100 100 100 65 8 22 41 7 0 0 0 0 0 5 5 1 2 5
100 100 100 100 100 100 100 100 100 100 100 100 100 100 100 100 100 100 100 100 100 97 100 64 84 13 78 0 0 0 0 0 0 5 1 1 2 5
100 100 100 100 100 100 100 100 100 100 100 100 100 99 100 100 100 100 100 100 100 100 93 3 70 5 6 0 0 0 0 0 0 0 3 1 1 2
100 100 100 100 100 100 100 100 100 100 100 100 100 100 100 100 100 100 100 100 100 100 11 1 5 5 5 3 0 0 0 0 0 4 1 0 5 43
100 100 100 100 100 100 81 100 100 100 100 100 100 100 100 100 100 100 100 100 100 78 5 5 5 35 5 67 0 0 0 0 0 0 6 5 20 14
100 100 100 97 100 100 100 100 100 100 100 100 100 100 100 100 100 100 100 97 23 16 5 5 5 6 27 5 1 1 0 0 0 0 4 5 14 81
100 100 100 100 100 100 100 100 100 100 100 100 100 89 100 100 78 22 100 74 23 20 4 5 4 5 5 0 0 0 0 0 0 0 3 6 5 62
100 100 100 100 100 100 100 100 100 100 100 100 95 78 97 38 92 66 98 40 5 29 4 3 5 5 5 3 0 0 0 0 0 0 0 1 1 5

GFSNE_prec_cloud_033.txt.gz
Cloud_Cover
0 0 0 4 5 4 2 1 52 15 55 5 3 0 4 6 27 8 12 91 7 17 16 82 31 98 87 100 14 5 5 5 5 5 6 2 5 93
0 0 0 2 3 0 5 5 3 5 5 26 4 2 4 21 11 100 27 100 94 98 100 91 100 98 93 79 99 26 5 5 5 44 100 100 20 85
0 0 0 0 1 0 0 5 41 5 19 5 16 52 5 1 16 100 89 94 85 100 100 100 100 100 100 100 75 41 77 93 81 6 26 100 100 100
0 0 0 0 0 0 0 0 5 5 8 29 10 36 5 0 5 100 37 79 89 100 100 100 100 100 8 96 51 12 6 5 56 97 6 24 100 100
0 0 0 0 0 0 0 5 5 5 5 92 5 11 50 3 7 96 5 65 38 93 100 100 100 100 75 98 98 8 2 0 0 0 0 4 66 86
0 0 0 0 0 0 0 2 1 4 5 30 14 75 92 15 53 100 50 100 84 73 100 100 100 100 25 67 100 70 0 0 0 0 0 39 0 0
0 0 0 0 0 0 0 3 1 5 5 5 5 95 18 47 100 100 89 100 28 92 87 100 100 100 100 95 100 59 6 0 0 0 0 0 12 4
0 0 0 0 0 3 5 5 6 20 4 5 44 12 4 45 21 54 100 25 100 100 100 100 100 100 95 77 100 38 5 1 0 0 0 0 0 0
58 99 23 99 8 0 0 94 100 85 48 20 96 100 24 22 14 11 7 6 99 100 100 100 100 95 45 38 42 4 0 4 0 0 0 0 0 0
48 14 4 0 0 0 99 99 78 86 42 38 100 100 100 100 95 34 14 17 100 100 100 100 100 99 82 13 5 4 0 0 0 0 0 0 0 0
82 18 18 57 43 18 81 100 100 100 100 94 97 100 100 100 100 55 96 77 100 100 100 100 100 100 79 5 5 5 3 0 0 0 0 0 0 0
8 5 5 93 81 100 100 100 100 100 100 100 100 100 100 100 100 88 71 94 100 100 100 100 100 100 46 5 5 7 0 0 0 0 0 0 0 0
4 47 62 77 100 100 100 100 100 100 100 100 100 100 100 100 85 94 92 100 100 100 100 100 100 100 6 5 8 4 2 0 0 0 0 0 0 0
56 97 76 100 36 100 100 100 100 100 100 100 100 100 100 32 97 97 98 100 100 100 100 100 36 96 7 12 5 5 0 0 0 0 0 0 0 0
5 10 67 79 100 100 100 100 100 100 100 100 100 100 100 96 100 100 100 100 100 100 100 100 100 99 10 6 7 6 0 0 0 0 0 0 0 4
75 11 57 41 100 100 100 100 100 100 100 100 100 100 100 100 99 100 100 100 100 100 100 100 33 99 5 5 4 3 4 0 0 0 0 0 0 7
100 100 100 100 100 100 100 100 100 100 100 100 100 100 100 100 100 100 100 100 100 100 100 100 61 64 12 5 3 0 0 0 0 0 0 0 0 5
100 100 100 100 100 100 100 100 100 100 100 100 100 100 100 100 100 100 100 100 100 100 99 60 75 90 10 5 0 0 0 0 0 0 0 0 0 0
99 100 100 100 100 100 100 100 100 100 100 100 100 100 100 100 100 100 100 100 100 100 100 100 89 5 10 5 4 0 0 0 0 0 0 0 0 0
100 100 100 100 100 100 100 100 100 100 100 100 100 100 100 100 100 100 100 100 100 100 100 100 32 6 4 5 3 1 0 0 5 0 0 0 0 1
100 100 100 100 100 100 100 100 100 100 100 100 100 100 100 100 100 100 100 100 100 100 100 100 61 70 5 4 0 0 0 3 0 0 0 0 0 0
100 100 100 100 100 100 100 100 100 100 100 100 100 100 100 100 100 100 100 100 100 100 100 100 93 6 5 5 4 0 0 0 0 1 0 0 0 0
100 100 100 100 100 100 100 100 100 100 100 100 100 100 100 100 100 100 100 100 100 100 100 100 52 16 14 5 5 4 0 3 4 0 0 0 0 0

GFSNE_prec_cloud_036.txt.gz
Cloud_Cover
0 0 0 0 0 0 0 0 2 1 24 13 86 65 62 83 50 13 2 96 26 10 68 100 44 99 98 100 100 100 100 47 5 5 5 25 100 100
0 0 0 0 0 0 0 0 0 4 5 5 51 98 93 87 100 97 5 5 14 100 92 35 18 50 98 95 100 100 100 5 1 0 3 4 8 55
0 0 0 0 0 0 0 0 0 0 4 4 19 68 100 100 84 32 7 5 5 77 100 100 66 20 84 100 100 100 100 7 3 0 0 0 0 5
0 0 0 0 0 0 0 0 0 0 1 5 0 51 89 100 6 12 85 48 40 28 99 100 100 100 100 100 21 100 100 22 8 1 0 0 0 0
0 0 0 0 0 0 0 0 0 0 0 1 3 18 87 5 17 6 2 5 85 32 97 100 100 99 100 100 100 98 29 2 4 0 0 0 0 0
0 0 0 0 0 0 0 0 5 0 0 5 7 41 60 24 93 20 5 2 9 60 99 100 100 100 100 100 79 11 55 2 0 0 0 0 0 0
0 3 2 0 0 0 0 0 0 0 5 15 26 79 19 89 100 40 20 100 23 67 55 100 100 100 100 100 96 100 85 74 4 0 0 0 0 0
1 2 0 0 0 3 0 1 0 16 10 14 42 100 90 18 65 100 9 100 28 98 90 100 100 100 100 100 100 98 5 58 12 0 0 0 0 0
0 0 0 0 5 5 5 67 14 100 100 100 100 100 100 100 100 100 100 16 19 100 100 41 100 100 100 100 100 91 6 5 1 0 0 0 0 0
9 31 5 17 22 5 5 10 100 100 87 100 100 100 91 100 100 100 97 89 85 100 100 98 100 100 100 100 100 100 14 5 5 0 0 0 0 0
2 4 4 3 12 88 20 36 100 96 100 100 100 100 100 83 100 100 86 45 99 100 100 100 100 100 100 100 100 100 22 5 4 0 0 0 0 0
5 2 4 5 80 100 63 16 100 100 99 100 100 100 100 100 100 100 100 100 100 100 100 100 100 100 100 100 100 100 78 55 39 4 0 0 0 0
2 0 2 3 3 10 70 35 100 100 100 100 100 98 100 100 100 100 100 100 100 100 100 100 100 100 100 100 100 99 56 68 44 6 0 0 0 0
5 5 4 56 2 1 22 5 100 100 100 100 100 100 100 100 100 100 100 100 100 100 100 99 100 100 100 100 100 100 91 7 5 5 1 0 0 0
90 47 42 79 8 57 0 4 69 100 100 100 100 100 100 100 100 100 100 100 100 73 96 96 100 100 100 100 100 100 96 5 5 5 4 0 0 0
22 36 100 84 48 100 91 31 34 100 100 100 100 100 100 100 100 100 100 100 100 100 100 100 100 99 100 100 100 100 58 5 14 3 0 0 0 0
0 0 20 70 100 49 42 71 79 100 100 100 100 100 100 100 100 100 100 100 100 100 100 100 88 100 100 100 100 100 89 25 5 25 5 0 0 0
6 61 74 93 67 41 76 52 100 100 100 100 100 100 100 100 100 100 100 100 100 100 100 100 100 100 100 100 100 100 66 20 6 5 5 0 0 0
65 72 49 91 100 100 99 73 100 100 100 100 100 100 100 100 100 100 100 100 100 100 100 100 100 100 100 100 100 94 6 30 5 5 1 0 0 0
45 92 93 100 100 100 100 100 100 100 100 100 100 100 100 100 100 100 100 100 100 100 100 100 100 100 100 100 100 100 84 13 5 5 19 0 0 0
100 100 100 100 100 100 100 100 100 100 100 100 100 100 100 100 100 100 100 100 100 100 100 100 100 100 100 100 100 100 72 7 4 5 0 3 0 0
89 89 87 100 100 100 100 100 100 100 100 100 100 100 100 100 100 100 100 100 100 100 100 100 100 100 100 100 64 8 5 5 4 4 0 0 0 0
30 49 97 77 100 100 100 100 100 100 100 100 100 100 100 100 100 100 100 100 100 100 100 100 100 100 100 63 29 47 5 5 12 2 0 0 0 0

GFSNE_prec_cloud_042.txt.gz
Cloud_Cover
0 0 0 0 0 0 0 0 0 0 0 0 0 0 0 0 0 66 24 96 100 99 100 100 100 100 93 100 99 96 100 100 98 36 99 100 100 82
0 0 0 0 0 0 0 0 0 0 0 0 0 0 0 0 0 12 39 6 24 82 96 100 100 100 94 100 63 96 83 100 100 20 53 100 100 100
0 0 0 0 0 0 0 0 0 0 0 0 0 0 0 0 0 47 22 17 100 100 100 100 100 100 100 98 100 99 100 100 63 5 5 89 100 100
0 0 0 0 0 0 0 0 0 0 0 0 0 0 0 0 0 7 79 61 62 100 100 100 100 100 100 100 100 100 99 100 100 66 5 100 100 100
0 0 0 0 0 0 0 0 0 0 1 5 14 58 100 92 90 90 74 33 95 100 97 100 99 94 100 100 98 81 91 100 100 100 7 93 100 64
0 0 0 0 0 0 0 0 0 4 5 5 92 93 50 25 44 19 72 98 100 79 99 100 100 100 100 94 95 81 86 100 100 100 12 90 100 47
0 0 0 0 0 0 0 0 0 0 1 89 100 100 100 100 52 5 76 5 58 97 86 75 60 100 100 100 99 91 100 100 91 91 62 91 100 78
0 0 0 0 0 0 0 0 0 0 0 0 100 100 97 100 64 3 12 47 100 78 49 24 78 78 97 100 100 100 100 100 100 100 50 100 100 46
0 0 1 5 4 10 5 2 4 5 5 48 32 98 98 96 34 5 94 96 97 100 100 100 100 99 94 100 100 100 100 100 100 100 100 100 100 100
0 0 0 0 2 45 56 69 85 16 43 11 4 14 97 100 68 76 81 46 100 67 97 93 98 100 100 100 100 100 100 100 100 100 100 100 98 19
5 5 3 5 4 5 4 4 10 1 22 97 31 38 58 100 100 89 30 29 100 100 100 98 100 97 100 100 91 100 100 100 100 100 100 87 96 100
0 1 2 3 7 8 10 16 8 27 15 5 40 19 9 98 97 49 64 92 20 100 95 72 100 100 100 100 100 100 100 100 100 100 100 100 100 100
3 0 0 0 12 60 89 96 60 9 26 81 68 91 88 24 5 27 31 75 92 100 81 100 95 87 100 100 100 100 100 100 100 100 100 100 100 100
84 71 68 66 84 95 100 90 96 98 100 100 100 100 100 100 100 99 100 100 100 100 100 100 100 100 100 100 100 100 100 100 100 100 100 100 100 100
17 10 10 2 10 55 100 100 95 100 100 100 100 100 100 100 100 99 100 100 100 100 100 99 100 100 100 100 100 100 100 100 100 100 100 100 100 100
33 16 8 39 97 95 97 98 99 98 97 100 91 100 100 100 100 100 100 100 100 100 100 100 100 100 100 100 100 100 100 100 100 100 100 100 100 100
94 90 60 48 57 56 56 56 70 96 98 98 100 100 100 100 100 100 100 100 100 100 100 100 100 100 100 100 100 100 100 100 100 100 100 100 100 100
100 69 37 51 45 40 38 33 54 56 56 63 86 100 100 100 100 100 100 100 100 100 100 100 100 100 100 100 100 100 100 100 100 100 100 100 100 97
49 55 51 48 60 71 79 67 79 56 96 100 87 100 100 67 100 100 100 100 100 100 100 100 100 100 100 100 100 100 100 100 100 100 100 100 100 100
51 19 17 21 30 81 88 94 73 45 18 6 26 43 52 100 76 100 100 100 100 100 100 100 100 100 100 100 100 100 100 100 100 100 100 100 100 100
86 9 19 43 95 100 100 100 100 100 100 100 100 100 89 67 98 100 100 100 100 100 100 100 100 100 100 100 100 100 100 100 100 100 100 100 100 100
12 27 32 55 42 57 71 97 86 88 100 95 100 100 100 100 100 100 100 100 100 100 100 100 100 100 100 100 100 100 100 100 100 100 100 100 100 94
18 30 38 45 83 57 99 100 100 64 100 100 98 84 100 100 100 100 100 100 100 100 100 100 100 100 100 100 100 100 100 100 100 100 100 100 100 88

GFSNE_prec_cloud_045.txt.gz
Cloud_Cover
0 0 0 0 0 0 0 0 0 0 0 0 0 0 0 0 0 0 4 5 14 100 100 100 100 100 100 100 100 100 100 100 88 100 100 90 100 77
2 0 1 0 0 0 0 0 0 0 0 0 0 5 5 0 0 0 1 5 64 59 100 100 100 100 100 100 100 100 100 100 99 100 100 100 95 49
0 1 0 0 0 0 0 0 0 0 0 0 0 1 5 24 82 3 1 83 59 74 56 100 100 98 100 100 100 92 100 100 100 100 99 100 100 100
0 6 0 0 0 0 0 0 0 0 0 3 0 2 24 99 100 100 77 69 100 16 88 100 96 100 100 100 100 100 6 99 87 99 100 100 100 100
0 0 0 0 0 4 1 0 0 0 0 0 5 53 96 28 56 79 94 100 93 100 100 100 100 100 93 100 100 100 100 100 100 100 100 79 100 100
0 0 0 0 0 0 0 0 0 0 0 0 0 1 100 92 98 44 97 92 60 100 100 100 100 100 99 100 93 100 100 100 100 100 100 100 99 87
2 2 0 0 0 0 0 0 0 0 0 0 0 6 100 100 94 24 41 84 100 100 100 100 100 100 100 100 81 94 100 100 92 100 100 100 87 42
5 0 0 0 0 0 0 0 0 0 0 0 0 0 48 100 100 99 32 14 100 100 94 100 100 100 100 100 100 98 100 100 100 100 100 100 100 80
0 0 0 0 0 3 4 5 5 5 5 5 1 4 2 45 39 95 100 22 66 99 95 64 100 99 99 37 100 100 100 100 100 100 100 100 100 100
0 0 0 0 0 0 0 0 4 5 5 5 4 24 7 11 5 6 88 68 100 100 90 99 100 100 96 96 95 100 98 100 100 100 100 100 100 100
0 0 2 4 4 4 5 0 5 15 100 95 8 0 4 5 5 5 24 65 70 100 94 94 100 100 100 100 100 100 100 100 100 100 100 100 100 100
4 5 5 2 35 89 32 51 51 33 91 84 30 5 0 3 37 100 100 100 100 100 100 56 83 100 100 100 100 100 100 100 100 100 100 100 100 100
0 0 1 0 5 23 59 93 94 66 99 100 100 100 100 100 100 100 100 100 100 100 100 100 100 100 100 100 100 100 100 100 100 100 100 100 100 100
0 1 0 0 48 100 100 98 100 100 100 100 100 100 100 100 100 100 69 41 66 96 100 100 100 100 100 100 100 100 100 100 100 100 100 100 100 100
1 6 2 46 96 98 98 98 100 100 100 100 100 100 100 69 98 99 100 100 97 99 100 100 100 100 100 100 100 100 100 100 100 100 100 100 100 100
70 27 75 88 100 100 100 100 60 64 79 100 100 100 100 100 100 100 100 100 100 100 100 100 100 100 100 100 100 100 100 100 100 100 100 100 100 100
100 100 90 100 100 100 59 60 64 97 100 78 84 91 87 85 90 96 100 100 100 100 100 100 100 100 100 100 100 100 100 100 100 100 100 100 100 100
100 100 100 100 100 100 60 44 45 84 84 78 84 80 73 65 69 74 54 96 100 100 100 100 100 100 100 100 100 100 100 100 100 100 100 100 100 100
100 100 100 100 38 18 32 32 69 78 62 100 99 84 63 78 99 100 100 100 100 81 100 100 100 100 100 100 100 100 100 100 100 100 100 100 100 100
100 96 57 10 28 88 100 100 100 98 98 100 100 98 100 100 100 100 100 100 59 97 100 100 100 100 100 100 100 100 100 100 100 100 100 100 100 100
83 4 14 85 100 96 95 100 100 83 100 100 97 100 100 100 100 100 94 97 55 100 100 100 100 100 100 100 100 100 100 100 100 100 100 100 100 100
15 24 27 38 46 89 98 84 100 100 100 100 91 98 82 100 100 100 100 96 100 100 100 100 100 100 100 100 100 100 100 100 100 100 100 100 100 100
100 100 90 100 100 100 100 100 100 100 100 100 73 99 53 19 40 97 60 100 100 100 100 100 100 100 100 100 100 100 100 100 100 100 100 100 100 100

GFSNE_prec_cloud_048.txt.gz
Cloud_Cover
0 0 0 0 0 0 0 0 0 0 0 0 0 0 5 5 2 1 0 4 98 100 100 100 100 100 100 100 100 92 100 100 100 100 100 100 79 98
4 0 0 0 0 0 0 0 0 0 0 0 2 4 22 31 5 95 95 67 100 88 80 100 100 100 100 100 55 100 100 100 100 100 100 100 100 98
0 0 0 0 0 0 0 0 0 0 0 0 0 0 6 20 8 90 100 100 100 100 70 100 100 100 100 100 100 100 100 100 100 100 91 100 100 100
0 0 0 0 0 0 0 0 0 0 0 0 0 0 10 100 100 68 90 78 100 78 98 100 100 100 100 100 100 89 100 100 100 100 99 100 100 100
0 0 0 0 0 0 0 0 0 0 0 0 0 0 3 5 5 5 85 100 100 86 81 93 100 100 100 98 100 100 14 33 35 100 100 100 100 100
0 0 0 5 0 0 0 0 0 0 0 0 0 0 3 0 5 2 15 75 100 99 74 100 100 99 100 98 97 98 33 14 100 100 100 100 100 100
0 0 4 0 0 0 0 0 0 0 0 0 0 0 5 5 8 5 5 5 24 99 65 100 100 97 96 99 71 10 72 76 99 100 100 100 100 100
0 1 3 0 3 1 0 0 0 5 5 5 6 4 26 48 64 5 5 3 4 35 62 42 100 71 91 92 100 100 100 100 100 100 100 100 100 100
0 5 0 0 1 0 32 12 5 0 0 1 1 4 5 5 0 0 9 100 80 6 98 10 100 98 44 100 98 100 93 100 100 100 100 100 100 100
2 2 0 0 0 1 0 2 5 5 6 5 1 4 2 3 0 4 90 100 100 100 49 98 69 100 100 100 100 69 100 99 100 100 100 100 100 100
5 0 0 1 5 5 4 5 7 99 76 71 61 3 2 0 7 94 100 100 100 100 100 100 95 100 100 100 100 100 100 100 100 100 100 100 100 100
5 0 0 5 5 5 1 0 19 33 28 0 9 19 22 34 72 100 100 100 100 100 48 74 92 47 95 100 100 100 100 100 100 100 100 100 100 100
16 2 0 1 13 31 31 25 30 84 98 100 100 100 100 100 100 90 71 98 100 100 100 100 100 97 81 100 100 100 100 100 100 100 100 100 100 100
2 4 3 0 25 44 93 100 100 100 100 100 100 100 100 100 100 100 100 100 100 100 100 100 100 100 100 100 100 100 100 100 100 100 100 100 100 100
9 0 5 49 55 85 100 100 100 100 100 100 100 100 100 94 90 91 54 87 97 100 100 100 100 100 100 100 100 100 100 100 100 100 100 100 100 100
25 12 40 98 100 100 100 100 100 100 100 100 100 100 100 100 64 54 44 9 45 17 91 100 100 100 100 100 100 100 100 100 100 100 100 100 100 100
73 97 100 100 100 100 100 100 100 100 100 100 100 97 66 26 29 4 34 30 78 81 90 85 78 100 100 100 100 100 100 100 100 100 100 100 100 100
100 100 100 100 100 100 100 100 54 23 36 83 95 100 100 100 99 43 46 94 94 75 68 65 100 100 100 100 100 100 100 100 100 100 100 100 100 100
100 99 100 100 100 100 59 27 23 11 13 69 99 100 100 100 100 100 100 100 100 100 100 100 100 100 100 100 100 100 100 100 100 100 100 100 100 100
98 100 100 99 55 9 10 4 13 93 100 100 100 72 100 100 100 100 86 84 99 100 100 100 100 100 100 97 100 100 100 100 100 100 100 100 100 100
100 100 98 53 27 95 97 100 100 100 100 100 100 100 100 100 86 45 51 83 81 45 98 100 99 99 100 100 100 100 100 100 100 100 100 100 100 100
100 53 57 62 89 90 99 100 100 100 100 100 100 98 99 94 67 54 31 54 100 100 100 100 79 52 10 46 96 100 100 100 100 100 100 100 100 100
100 100 100 100 100 100 100 100 100 100 90 100 100 100 100 100 99 73 100 58 62 100 100 100 96 85 99 98 90 100 100 100 100 100 100 100 100 100